7 * 24
多渠道服务支持
STARLINK-34591是美国SpaceX公司星链(Starlink)星座的卫星,于2025年7月2日在美国发射升空。星链项目旨在构建全球覆盖的低轨卫星互联网系统,该卫星属于第二代星链组网卫星,运行在近地轨道。 它配备相控阵天线,支持激光星间通信技术,可提供全球宽带互联网接入服务,还能支撑手机直连业务,助力星链星座进一步完善全球覆盖能力,增强系统通信稳定性与服务容量。
美国
(US)
| 数据来源 | 国际轨道数据 |
| 星历时间: | 2026-06-13T20:04:26+0800 9小时前 查看轨道信息 |
| 半长轴: | 6853.396km |
| 偏心率: | 0.0001508 |
| 轨道倾角: | 53.158° |
| 近地点辐角 | 93.898° |
| 升交点赤经 | 95.834° |
| 平近点角 | 266.220° |
| 近地点: | 474.225km |
| 远地点: | 476.293km |
| 周期: | 94.106分钟 |
| 每日圈数: | 15.301853 |